User: anonymous   Login
Location: Brno
(49.2000°N, 16.6330°E)
Time: 17:22:47
(UTC+02:00)
Language:

Meteor 1-4 Rocket - Orbit

View from above orbital plane
View from above orbital plane
View from above satellite
View from above satellite

Ground track
Ground track

The orbit data is extracted from the following two-line orbital elements,

1 04394U 70037B   15188.45967646  .00005001  00000-0  19475-3 0  9992
2 04394 081.2447 127.5910 0044882 027.8307 332.5312 15.24813120456322
Epoch (UTC): 07 July 2015 11:01:56
Eccentricity: 0.0044882
inclination: 81.2447°
perigee height: 460 km
apogee height: 522 km
right ascension of ascending node: 127.5910°
argument of perigee: 27.8307°
revolutions per day: 15.24813120
mean anomaly at epoch: 332.5312°
orbit number at epoch: 45632

The dashed part of the orbit path shows where the satellite is in the earth's shadow,  

DLR